Vertical_Velocity
1 -1 0 -1 -2 -2 -0 -1 -0 -1 -1 -0 -2 -2 -0 5 1 -5 -1 -2 -1 -1 -0 4 1 1 -0 3 3 1 3 1 2 0 3 -1 -1 -0 -1 -1 -0 -0 0
-1 -1 -0 1 3 2 -2 -1 -3 -3 -2 -3 -1 -4 -4 2 3 1 -2 -1 -1 -2 -1 -2 -1 -0 0 1 1 3 -1 2 2 -0 3 2 -1 -0 -0 -0 -0 -1 -0
1 -0 -0 2 4 -0 0 -1 0 0 0 -0 -1 -3 -5 -5 -2 0 1 1 3 -2 -2 -1 0 -0 0 2 1 0 2 2 -2 1 3 5 1 0 2 -0 0 0 -1
4 2 1 -1 -2 -0 -0 0 -1 -2 1 -0 1 -2 -3 -3 -1 1 -1 0 2 -1 -2 -1 -2 -2 -1 0 3 -2 -0 2 1 1 3 2 2 1 2 0 0 1 1
3 1 -1 2 0 -0 -0 0 -0 0 1 0 1 1 -2 -1 -1 -1 -1 -2 1 0 -0 1 -2 0 -1 1 1 -0 -1 1 2 0 -1 0 -0 -1 0 1 0 1 -2
-1 1 1 -1 2 1 1 0 2 -2 -2 -1 0 1 0 -2 -3 -3 -3 -3 -1 2 1 0 -1 -0 -0 1 1 0 1 -0 -2 -2 -2 -1 -1 -1 -1 -1 -2 -2 1
0 -1 -0 1 -1 -0 -0 1 0 -0 -2 -0 -1 1 2 1 -0 -2 -4 -1 -3 -4 -0 -2 -3 -1 -1 -0 -1 -1 -0 0 0 3 1 -1 2 -2 -0 -5 -4 0 -0
-1 -0 -2 -1 -1 -2 -2 -4 -2 -2 0 -0 -3 -0 0 0 1 0 -2 2 3 2 -1 -0 -1 -1 0 -0 -2 -0 1 -2 -2 -0 -1 1 2 -0 1 0 -2 -1 0
1 -1 -2 -3 -2 -2 -1 -1 -3 0 1 0 -0 -1 2 0 2 0 -1 -0 1 0 -1 -2 -3 -2 -4 -6 -3 -1 -5 -0 -0 -3 -2 -1 -1 1 0 1 -0 -1 -0
-1 1 0 0 2 2 3 1 1 -1 0 3 0 -1 0 -2 -2 -2 -2 -2 -2 -0 -4 -1 0 -1 -0 -1 -0 1 -0 7 -6 1 1 2 1 -1 1 -0 1 -2 2
0 -1 -2 0 -1 -1 1 0 1 2 0 -1 -3 -2 -2 1 0 -2 -3 -0 -1 1 2 2 -2 -2 -1 0 -0 1 3 -2 -0 -5 -1 -0 2 2 1 0 -5 -5 1
-4 -3 -2 -2 -2 -1 -2 -2 -1 -1 -1 -1 -0 -1 0 0 -2 0 3 3 -2 2 0 -2 -3 1 -3 -3 1 -2 -1 -1 -2 0 0 -2 -4 -2 27 16 10 11 3
-2 -2 -2 -3 -3 -1 1 -2 -4 -2 -1 -1 -2 -3 -0 -1 0 0 2 -2 1 -3 2 1 -1 1 -0 -0 -1 -1 1 -2 5 4 9 8 5 -4 7 20 15 4 1
0 -1 -1 -1 -2 -2 -3 -2 -2 0 -0 -1 -2 -1 1 0 -0 0 0 1 1 -0 2 1 -1 -1 -1 0 -1 -1 2 -1 -2 2 2 12 3 1 -4 -7 -5 4 -1
-2 -1 -1 -1 -0 1 0 -1 -1 -1 -1 -1 -2 -2 -1 0 -1 1 1 -0 1 1 2 0 -0 1 -0 -1 1 -0 0 0 -0 -0 -1 -1 1 4 6 -6 18 8 12
-3 -0 1 0 -1 -2 -0 -0 1 1 -1 -0 -1 -2 -2 -2 -0 -2 -1 -0 -0 -0 0 -1 -1 -1 -0 -1 1 0 -1 1 1 1 0 -1 -2 11 32 17 18 27 4
-2 -0 -1 -1 -1 -1 -1 -0 1 1 1 1 0 -0 0 -1 -2 -1 -1 -4 -2 -2 -1 -1 -1 0 0 -1 1 0 -1 -1 0 2 -0 -1 -1 6 1 0 -0 3 -3
-1 -0 2 -1 -3 -0 1 1 0 0 -0 0 -0 -0 0 -0 0 -0 0 -0 -2 -0 -2 -4 -0 -1 1 0 -1 1 -1 -0 0 0 0 -1 1 -1 -2 -3 -3 -4 8
-4 1 1 0 0 0 2 -1 -2 -3 -5 -3 -1 1 -1 -1 -1 -0 -2 -2 -1 -1 -0 -1 -2 -2 -6 -0 0 2 -1 -2 -2 -1 -2 -0 -0 0 -3 -2 -1 2 -2
-5 -4 2 0 1 -0 -1 -0 1 0 -1 -2 -2 -2 -2 -2 -3 1 0 1 1 0 -3 -2 -5 -1 -3 -3 -5 -4 -3 -1 2 0 2 1 -2 -2 2 3 -3 -1 4
-4 -2 -0 1 -1 0 -1 -0 -1 -2 -2 -2 -2 -3 -2 -3 -3 -4 -4 -2 -2 -3 -3 -1 1 0 1 -4 -0 -1 1 -2 -2 -3 1 1 -0 0 -2 0 -1 -1 1
-2 -1 -0 1 -0 -3 -0 -0 -2 0 -1 -2 -2 -1 -1 -1 -2 -2 -2 -1 -0 -0 -0 -1 -0 -1 -1 -2 -2 -0 1 2 -2 -2 -2 1 1 2 4 -2 4 4 1
-1 2 0 -1 -0 -3 -1 -1 -1 -1 -1 -2 -2 -2 -2 -2 -2 -2 -4 -2 -4 -3 -0 -0 -0 -0 -2 -0 1 2 7 6 3 -0 -1 1 0 0 1 -1 -2 -3 -1
2 -1 -2 2 1 0 -2 -2 -1 -1 -0 -1 -0 -2 -2 -1 -3 -4 -4 -4 -3 -3 -3 -3 -2 -0 0 1 1 0 -4 -9 -6 1 3 2 1 0 -1 -3 -6 0 2
-1 -1 -1 3 -2 0 -2 1 -0 -0 -3 -1 -2 -2 -4 -5 -5 -5 -4 -4 -4 -2 -1 -0 -0 -1 0 -0 -0 -1 -1 0 -0 3 3 0 1 -5 -3 -0 1 -0 -0
2 0 -1 3 -2 -2 -1 1 0 -1 -4 -4 -3 -2 -3 -3 -3 -4 -4 -3 -2 -1 -1 -2 -3 -4 -3 -2 -2 0 1 1 2 1 1 1 -0 -2 -1 -0 0 1 1
Height
5873 5876 5879 5880 5883 5885 5887 5889 5892 5895 5897 5901 5906 5907 5908 5909 5911 5913 5916 5919 5921 5920 5920 5920 5921 5922 5924 5925 5925 5926 5927 5928 5927 5927 5928 5929 5928 5928 5928 5928 5928 5928 5928
5868 5872 5873 5876 5879 5882 5883 5884 5887 5890 5893 5895 5900 5904 5905 5906 5909 5911 5913 5914 5916 5917 5918 5918 5919 5919 5921 5922 5923 5924 5924 5924 5925 5925 5925 5925 5925 5925 5925 5925 5925 5925 5925
5862 5867 5869 5872 5874 5877 5879 5882 5883 5886 5889 5892 5895 5898 5901 5903 5905 5907 5909 5911 5912 5914 5914 5915 5916 5916 5917 5918 5919 5919 5920 5921 5921 5921 5921 5921 5921 5921 5921 5921 5921 5920 5919
5861 5864 5866 5868 5870 5872 5875 5877 5880 5881 5883 5886 5890 5892 5895 5897 5899 5901 5904 5906 5908 5909 5911 5911 5912 5913 5914 5915 5915 5915 5916 5917 5918 5917 5916 5917 5917 5916 5916 5915 5915 5914 5913
5858 5860 5861 5864 5866 5867 5869 5871 5874 5877 5879 5881 5884 5887 5889 5892 5894 5895 5897 5899 5902 5904 5906 5907 5906 5908 5909 5910 5911 5910 5911 5912 5913 5913 5912 5912 5911 5911 5910 5909 5908 5907 5906
5854 5855 5856 5858 5859 5861 5862 5864 5867 5869 5872 5875 5878 5881 5883 5885 5887 5888 5891 5893 5895 5899 5900 5901 5902 5903 5904 5905 5906 5905 5905 5906 5906 5906 5906 5905 5904 5904 5903 5903 5902 5901 5901
5849 5850 5851 5851 5853 5855 5856 5857 5858 5860 5863 5867 5870 5874 5877 5880 5881 5882 5884 5886 5889 5893 5894 5895 5896 5896 5897 5898 5898 5899 5899 5900 5899 5899 5898 5898 5898 5897 5897 5895 5894 5893 5891
5847 5847 5846 5846 5847 5848 5848 5849 5850 5848 5853 5858 5863 5866 5870 5873 5874 5875 5877 5880 5882 5884 5886 5887 5888 5888 5889 5889 5890 5892 5892 5893 5892 5891 5891 5890 5889 5888 5887 5886 5885 5884 5881
5843 5844 5844 5842 5842 5842 5842 5842 5842 5840 5844 5851 5855 5859 5862 5864 5865 5867 5867 5869 5873 5875 5876 5878 5879 5881 5881 5880 5882 5882 5883 5883 5882 5882 5882 5881 5880 5879 5878 5877 5874 5872 5872
5839 5840 5840 5839 5839 5838 5838 5837 5837 5839 5842 5846 5848 5849 5852 5853 5854 5856 5857 5860 5863 5866 5867 5868 5868 5870 5870 5871 5872 5873 5875 5873 5871 5872 5872 5871 5871 5871 5868 5866 5864 5861 5860
5834 5835 5835 5834 5835 5834 5834 5834 5834 5834 5836 5839 5840 5841 5842 5842 5844 5846 5849 5851 5853 5855 5858 5860 5859 5859 5859 5860 5860 5862 5865 5861 5860 5860 5860 5860 5860 5858 5855 5853 5850 5849 5848
5828 5828 5829 5829 5829 5829 5829 5829 5828 5828 5830 5830 5832 5833 5833 5832 5833 5836 5839 5841 5842 5843 5846 5847 5847 5846 5847 5847 5847 5848 5849 5849 5848 5848 5847 5847 5846 5845 5840 5839 5836 5835 5834
5823 5823 5823 5823 5824 5824 5824 5824 5824 5823 5823 5823 5824 5826 5825 5827 5828 5828 5828 5832 5832 5833 5833 5832 5833 5831 5831 5834 5833 5834 5835 5835 5834 5835 5835 5836 5834 5832 5831 5827 5826 5822 5822
5816 5816 5816 5816 5817 5816 5817 5817 5818 5818 5818 5818 5819 5819 5819 5821 5821 5821 5821 5822 5822 5822 5821 5821 5820 5819 5819 5819 5819 5821 5822 5822 5821 5824 5824 5821 5823 5819 5817 5815 5812 5810 5807
5808 5808 5808 5808 5809 5809 5809 5810 5810 5811 5811 5811 5811 5811 5812 5812 5812 5813 5813 5812 5812 5812 5812 5812 5810 5809 5809 5808 5807 5808 5808 5808 5809 5810 5809 5809 5809 5808 5807 5804 5798 5794 5793
5799 5799 5799 5800 5800 5800 5800 5801 5802 5803 5804 5804 5804 5804 5804 5804 5804 5804 5804 5803 5803 5802 5802 5801 5799 5799 5799 5798 5798 5798 5797 5797 5795 5796 5796 5796 5793 5791 5789 5791 5787 5785 5787
5793 5792 5791 5791 5791 5792 5792 5793 5794 5795 5796 5796 5797 5797 5797 5797 5796 5795 5795 5794 5793 5793 5791 5791 5791 5789 5789 5788 5787 5786 5785 5784 5784 5783 5783 5782 5781 5780 5778 5777 5776 5774 5774
5788 5786 5785 5784 5784 5786 5786 5786 5787 5788 5789 5789 5789 5788 5787 5787 5786 5785 5785 5784 5783 5782 5780 5778 5778 5778 5777 5776 5775 5774 5772 5771 5771 5771 5770 5770 5769 5768 5767 5766 5765 5762 5760
5781 5779 5779 5778 5778 5780 5780 5780 5781 5781 5781 5780 5779 5779 5777 5775 5775 5774 5773 5771 5770 5768 5767 5766 5764 5763 5762 5761 5761 5761 5760 5759 5758 5757 5757 5756 5756 5755 5754 5753 5752 5754 5753
5774 5775 5773 5773 5771 5773 5774 5774 5775 5775 5775 5773 5771 5769 5767 5765 5763 5762 5760 5759 5758 5757 5756 5755 5753 5752 5749 5747 5747 5746 5746 5746 5745 5745 5745 5745 5745 5745 5745 5745 5744 5744 5744
5769 5769 5768 5766 5766 5765 5767 5767 5768 5768 5766 5763 5760 5757 5755 5754 5752 5749 5747 5746 5746 5745 5745 5745 5743 5742 5740 5738 5737 5735 5735 5734 5734 5734 5735 5735 5736 5736 5736 5735 5736 5737 5737
5763 5762 5761 5759 5759 5760 5762 5762 5762 5762 5760 5757 5754 5752 5750 5748 5745 5742 5739 5737 5737 5737 5737 5737 5736 5735 5733 5732 5730 5729 5728 5727 5727 5726 5726 5726 5726 5727 5727 5728 5729 5729 5728
5755 5755 5754 5754 5753 5755 5757 5759 5757 5756 5755 5752 5749 5747 5745 5742 5740 5738 5735 5733 5731 5730 5729 5729 5728 5727 5726 5725 5724 5723 5721 5721 5721 5720 5720 5719 5720 5720 5721 5721 5721 5721 5722
5749 5749 5748 5749 5748 5749 5751 5752 5753 5750 5749 5748 5746 5743 5742 5740 5737 5734 5731 5728 5727 5725 5723 5721 5721 5720 5719 5718 5718 5716 5715 5715 5715 5714 5713 5713 5713 5713 5714 5714 5715 5715 5715
5743 5741 5743 5744 5743 5745 5747 5748 5748 5747 5745 5744 5742 5741 5740 5738 5736 5734 5731 5728 5724 5721 5719 5717 5715 5714 5713 5712 5711 5711 5710 5709 5709 5708 5707 5707 5708 5707 5708 5709 5709 5709 5709
5734 5736 5738 5740 5739 5740 5742 5743 5744 5743 5740 5738 5738 5738 5736 5735 5733 5730 5728 5726 5723 5721 5718 5715 5713 5711 5710 5709 5708 5707 5706 5705 5704 5704 5703 5704 5703 5703 5703 5704 5704 5704 5703